Smyrna, TN

11:56 PM CDT on April 26, 2017 (GMT -0500)
Smyrna

Weather History for KMQY - November, 2011

Change the Weather History Date:

Monday, November 28, 2011

  Actual Average Record
Temperature  
Mean Temperature 40 °F -  
Max Temperature 45 °F 53 °F 75 °F (1998)
Min Temperature 36 °F 38 °F 15 °F (2013)
Degree Days  
Heating Degree Days 24    
Moisture  
Dew Point 41 °F    
Average Humidity 97    
Maximum Humidity 100    
Minimum Humidity 87    
Precipitation  
Precipitation 0.50 in - - ()
Sea Level Pressure  
Sea Level Pressure 29.78 in    
Wind  
Wind Speed 9 mph (NW)    
Max Wind Speed 14 mph    
Max Gust Speed -    
Visibility 5 miles    
Events Rain    
Averages and records for this station are not official NWS values.
T = Trace of Precipitation, MM = Missing Value Source: NWS Daily Summary

Daily Weather History Graph

Daily Weather History Graph

Search for Another Location

Airport or City:

Trip Planner

Search our weather history database for the weather conditions in past years. The results will help you decide how hot, cold, wet, or windy it might be!

Date:

Astronomy

Nov. 28, 2011 Rise Set
Actual Time 6:35 AM CST 4:32 PM CST
Civil Twilight 6:07 AM CST 5:00 PM CST
Nautical Twilight 5:35 AM CST 5:32 PM CST
Astronomical Twilight 5:04 AM CST 6:02 PM CST
Moon 9:45 AM CST (11/28) 8:17 PM CST (11/28)
Length of Visible Light 10h 53m
Length of Day
9h 57m
Waxing Crescent, 16% of the Moon is Illuminated
Nov 28
Waxing Crescent
Dec 2
First Quarter
Dec 10
Full
Dec 17
Last Quarter
Dec 24
New

Hourly Weather History & Observations

Time (CST) Temp. Windchill Dew Point Humidity Pressure Visibility Wind Dir Wind Speed Gust Speed Precip Events Conditions
12:05 AM 42.8 °F 37.5 °F 42.8 °F 100% 29.97 in 6.0 mi North 9.2 mph - 0.01 in Rain Rain
12:56 AM 41.9 °F 35.9 °F 41.9 °F 100% 29.94 in 4.0 mi North 10.4 mph - 0.05 in Rain Rain
1:27 AM 42.8 °F 37.5 °F 42.8 °F 100% 29.94 in 8.0 mi North 9.2 mph - 0.02 in Rain Light Rain
1:34 AM 42.8 °F 37.5 °F 42.8 °F 100% 29.93 in 7.0 mi North 9.2 mph - 0.02 in Rain Light Rain
1:56 AM 41.9 °F 36.3 °F 41.9 °F 100% 29.94 in 7.0 mi North 9.2 mph - 0.04 in Rain Light Rain
2:07 AM 42.8 °F 38.0 °F 41.0 °F 93% 29.94 in 7.0 mi North 8.1 mph - 0.00 in Rain Rain
2:36 AM 42.8 °F 37.0 °F 41.0 °F 93% 29.93 in 6.0 mi North 10.4 mph - 0.02 in Rain Light Rain
2:56 AM 41.9 °F 35.9 °F 41.0 °F 97% 29.92 in 6.0 mi North 10.4 mph - 0.03 in Rain Rain
3:25 AM 42.8 °F 37.0 °F 41.0 °F 93% 29.89 in 10.0 mi NE 10.4 mph - 0.01 in Rain Light Rain
3:56 AM 41.9 °F 36.9 °F 41.9 °F 100% 29.87 in 10.0 mi North 8.1 mph - 0.01 in Rain Light Rain
4:56 AM 41.9 °F 36.3 °F 41.0 °F 97% 29.86 in 6.0 mi North 9.2 mph - 0.04 in Rain Rain
5:56 AM 41.9 °F 36.3 °F 41.9 °F 100% 29.87 in 3.0 mi North 9.2 mph - 0.09 in Rain Heavy Rain
6:56 AM 41.9 °F 35.4 °F 41.9 °F 100% 29.84 in 4.0 mi North 11.5 mph - 0.06 in Rain Rain
7:56 AM 41.9 °F 34.6 °F 41.9 °F 100% 29.79 in 10.0 mi North 13.8 mph - 0.02 in   Overcast
8:21 AM 42.8 °F 36.2 °F 42.8 °F 100% 29.81 in 2.0 mi North 12.7 mph - 0.01 in Rain Light Rain
8:28 AM 42.8 °F 36.2 °F 42.8 °F 100% 29.81 in 1.2 mi North 12.7 mph - 0.02 in Rain Light Rain
8:44 AM 42.8 °F 36.2 °F 42.8 °F 100% 29.78 in 1.0 mi NNW 12.7 mph - 0.03 in Rain Light Rain
8:56 AM 43.0 °F 36.4 °F 41.9 °F 96% 29.76 in 1.8 mi North 12.7 mph - 0.03 in Rain Light Rain
9:19 AM 42.8 °F 35.8 °F 42.8 °F 100% 29.77 in 2.0 mi North 13.8 mph - 0.01 in Rain Light Rain
9:24 AM 42.8 °F 36.2 °F 42.8 °F 100% 29.77 in 1.2 mi North 12.7 mph - 0.02 in Rain Light Rain
9:56 AM 43.0 °F 36.8 °F 43.0 °F 100% 29.75 in 1.5 mi North 11.5 mph - 0.03 in Rain Light Rain
10:00 AM 42.8 °F 36.6 °F 42.8 °F 100% 29.75 in 2.0 mi North 11.5 mph - 0.00 in Rain Light Rain
10:56 AM 43.9 °F 37.9 °F 43.9 °F 100% 29.71 in 2.0 mi North 11.5 mph - 0.01 in Rain Light Rain
11:56 AM 45.0 °F 40.6 °F 43.9 °F 96% 29.68 in 2.0 mi NNW 8.1 mph - 0.01 in Rain Light Rain
12:56 PM 45.0 °F 40.1 °F 45.0 °F 100% 29.69 in 2.0 mi NW 9.2 mph - 0.00 in Rain Light Rain
12:59 PM 44.6 °F 40.2 °F 44.6 °F 100% 29.69 in 1.0 mi WNW 8.1 mph - 0.00 in Rain Light Rain
1:36 PM 44.6 °F 40.7 °F 44.6 °F 100% 29.66 in 2.0 mi NW 6.9 mph - 0.01 in   Overcast
1:56 PM 45.0 °F 41.2 °F 43.9 °F 96% 29.67 in 3.0 mi WNW 6.9 mph - 0.01 in   Overcast
2:07 PM 44.6 °F 41.4 °F 44.6 °F 100% 29.68 in 4.0 mi West 5.8 mph - N/A   Overcast
2:34 PM 44.6 °F 41.4 °F 42.8 °F 93% 29.68 in 1.0 mi SW 5.8 mph - N/A   Overcast
2:56 PM 43.9 °F 39.3 °F 43.0 °F 97% 29.68 in 1.5 mi WSW 8.1 mph - N/A   Overcast
3:01 PM 44.6 °F 40.7 °F 42.8 °F 93% 29.69 in 2.0 mi SW 6.9 mph - N/A   Overcast
3:56 PM 43.9 °F 39.9 °F 41.9 °F 93% 29.70 in 5.0 mi WSW 6.9 mph - 0.00 in   Overcast
4:17 PM 42.8 °F 38.0 °F 42.8 °F 100% 29.71 in 10.0 mi SW 8.1 mph - N/A   Overcast
4:24 PM 42.8 °F 38.6 °F 41.0 °F 93% 29.72 in 5.0 mi SW 6.9 mph - N/A   Overcast
4:56 PM 41.9 °F 36.9 °F 41.0 °F 97% 29.72 in 3.0 mi SW 8.1 mph - N/A   Overcast
5:56 PM 41.9 °F 38.2 °F 41.0 °F 97% 29.73 in 4.0 mi South 5.8 mph - 0.00 in   Overcast
6:56 PM 41.9 °F 36.9 °F 39.9 °F 93% 29.73 in 10.0 mi South 8.1 mph - 0.01 in   Mostly Cloudy
7:04 PM 42.8 °F 39.3 °F 39.2 °F 87% 29.74 in 10.0 mi SSW 5.8 mph - N/A   Mostly Cloudy
7:23 PM 42.8 °F 39.3 °F 41.0 °F 93% 29.74 in 10.0 mi South 5.8 mph - N/A   Overcast
7:48 PM 41.0 °F 36.4 °F 39.2 °F 93% 29.74 in 6.0 mi SW 6.9 mph - 0.00 in Rain Light Rain
7:56 PM 41.0 °F 36.4 °F 38.8 °F 92% 29.73 in 6.0 mi SW 6.9 mph - 0.00 in Rain Light Rain
8:30 PM 41.0 °F 35.8 °F 39.2 °F 93% 29.75 in 5.0 mi SW 8.1 mph - 0.01 in Rain Light Rain
8:56 PM 38.8 °F 32.6 °F 36.9 °F 93% 29.75 in 10.0 mi SW 9.2 mph - 0.01 in   Mostly Cloudy
9:08 PM 39.2 °F 33.6 °F 37.4 °F 93% 29.76 in 10.0 mi SW 8.1 mph - N/A   Mostly Cloudy
9:45 PM 37.4 °F 31.4 °F 35.6 °F 93% 29.76 in 7.0 mi South 8.1 mph - 0.01 in Rain Light Rain
9:56 PM 36.9 °F 29.1 °F 34.9 °F 93% 29.75 in 5.0 mi SSW 11.5 mph - 0.03 in Rain Light Rain
10:56 PM 36.9 °F 30.7 °F 36.0 °F 97% 29.75 in 8.0 mi South 8.1 mph - 0.02 in Rain Light Rain